STARLINK-5474, 55665

Orbit data source: Space-Track

STARLINK-5474, 55665 is a payload satellite owned by SpaceX/Seattle (US) in LEO that was launched on Fri, 17 Feb 2023 UTC via an FALCON 9 launch vehicle from the Air Force Western Test Range (AFWTR). Payload-class satellites include a variety of spacecraft equipped with specific instruments for various scientific and technological missions. These include communications satellites like Starlink; space stations such as the ISS; scientific satellites like the Hubble; Earth observation satellites from companies like Planet Labs, Umbra, and HawkEye 360; GPS; miniature CubeSats for education and research; and military/defense satellites.

Loading next visibility...
Identifier
55665, 2023-021AP
Orbit
LEO
Country
Flag of USUS
Related business
Manufacturer
SpaceX/Seattle
Mission
Operational Commercial Communications
Bus & Motor
STARLINK, Unknown motor
Mass
305 kg wet, ~290 kg dry
Launch date (UTC)
2023-02-17 (3 years ago)
Launch vehicle
FALCON 9
Launch site
Air Force Western Test Range (AFWTR)
Object type
Payload
Rocket body
Debris
Shape & HBR
Box + 1 Pan, 10.1 m
Radar Cross Section
13.562 m², Large (>1 m²)

Expand to show TLE details & history
Last TLE update: 2 days ago

TLE from 2 days ago
0 STARLINK-5474
1 55665U 23021AP  26171.35381573  .00000097  00000-0  15891-4 0  9991
2 55665  69.9993 265.5598 0003227 271.1198  88.9591 14.98331405184659
Epoch: 2026-06-20T08:29Z
TLE epoch observation values (Epoch: 2026-06-20T08:29:29.679Z)
Latitude
-0.00003°
Longitude
-130.38352°
Altitude
574.435 km
Speed
7.574 km/s
True Right ascension
17h 42m 14s
True Declination
0° 00' 00"
Sunlit
Object was in full shadow at epoch
Visualization orbit readout
Latitude
Unknown
Longitude
Unknown
Altitude
Unknown
Speed
Unknown
Apparent Right ascension
Unknown
Apparent Declination
Unknown
Sunlit
N/A
Visualization observer readout
Local Sidereal Time
21:39:16
Azimuth
Unknown
Elevation
Unknown
Doppler factor
Unknown
Orbital elements
Apogee altitude
572.242 km
Perigee altitude
567.758 km
Semi-major axis
6,948.137 km
Eccentricity
0.00032
Inclination
69.9993°
RAAN
265.5598°
Arg. of periapsis
271.1198°
True anomaly
88.99607°
Mean anomaly
88.9591°
Eccentric anomaly
88.97759°
Mean motion
3.74749 °/min
Orbital period
96.06 mins
BSTAR
0.000015891
Loading maneuver chart data...
Computing Atmospheric mass density...

Documentation

Showing up to 5 results
|